Вернуться в каталог

DELTA 1 DEB

АктивенLEO
NORAD 10214·DEBRIS·🇺🇸 United States

Запущен Jul 14, 1977 с Cape Canaveral Space Force Station

Loading…

Ближайшие Пролёты (ближайшие 24 часа)

TLE

СвежийSource: Space-Track

Эпоха: Sep 14, 2026, 13:54 UTC

1 10214U 77065AT  26257.57972817  .00001701  00000-0  56946-3 0  9993
2 10214  28.8760  90.2893 0487373  45.7117 318.2388 13.83513932365644

Отслеживайте DELTA 1 DEB в реальном времени с AllMySat

Download on the App Store